Hourly Weather Szlinokiemie

Today, 15 July, Wednesday

Time Temperature Precipitation Wind Pressure Humidity
00:00 +12°C° 0 mm 1 mps 746 mmHg 92%
01:00 +12°C° 0 mm 1 mps 746 mmHg 92%
02:00 +11°C° 0 mm 0 mps 746 mmHg 93%
03:00 +12°C° 0 mm 1 mps 746 mmHg 93%
04:00 +11°C° 0 mm 1 mps 746 mmHg 93%
05:00 +11°C° 0 mm 1 mps 746 mmHg 94%
06:00 +13°C° 0 mm 1 mps 746 mmHg 89%
07:00 +15°C° 0 mm 1 mps 746 mmHg 84%
08:00 +18°C° 0 mm 1 mps 746 mmHg 79%
09:00 +19°C° 0 mm 1 mps 746 mmHg 74%
10:00 +21°C° 0 mm 1 mps 746 mmHg 69%
11:00 +22°C° 0 mm 1 mps 746 mmHg 65%
12:00 +22°C° 0 mm 1 mps 746 mmHg 62%
13:00 +23°C° 0 mm 1 mps 746 mmHg 59%
14:00 +24°C° 0 mm 1 mps 745 mmHg 56%
15:00 +24°C° 0 mm 1 mps 745 mmHg 57%
16:00 +23°C° 0 mm 1 mps 745 mmHg 57%
17:00 +23°C° 0 mm 1 mps 745 mmHg 58%
18:00 +22°C° 0 mm 1 mps 745 mmHg 65%
19:00 +21°C° 0 mm 1 mps 745 mmHg 72%
20:00 +19°C° 0 mm 1 mps 745 mmHg 79%
21:00 +17°C° 0 mm 2 mps 745 mmHg 82%
22:00 +16°C° 0 mm 2 mps 745 mmHg 85%
23:00 +15°C° 0 mm 2 mps 745 mmHg 88%

Tomorrow, 16 July, Thursday

Time Temperature Precipitation Wind Pressure Humidity
00:00 +14°C° 0 mm 2 mps 745 mmHg 88%
01:00 +14°C° 0 mm 2 mps 745 mmHg 88%
02:00 +13°C° 0 mm 2 mps 744 mmHg 89%
03:00 +13°C° 0 mm 2 mps 744 mmHg 90%
04:00 +13°C° 0 mm 2 mps 744 mmHg 91%
05:00 +13°C° 0 mm 2 mps 744 mmHg 92%
06:00 +15°C° 0 mm 2 mps 744 mmHg 88%
07:00 +17°C° 0 mm 2 mps 744 mmHg 83%
08:00 +19°C° 0 mm 2 mps 744 mmHg 78%
09:00 +20°C° 0.2 mm 3 mps 744 mmHg 75%
10:00 +21°C° 0.2 mm 3 mps 743 mmHg 72%
11:00 +22°C° 0.2 mm 3 mps 743 mmHg 69%
12:00 +22°C° 0.8 mm 3 mps 743 mmHg 69%
13:00 +24°C° 0.8 mm 3 mps 743 mmHg 70%
14:00 +24°C° 0.8 mm 3 mps 743 mmHg 70%
15:00 +22°C° 1.7 mm 3 mps 743 mmHg 74%
16:00 +23°C° 1.7 mm 2 mps 743 mmHg 78%
17:00 +21°C° 1.7 mm 2 mps 743 mmHg 82%
18:00 +20°C° 0.9 mm 2 mps 743 mmHg 86%
19:00 +19°C° 0.9 mm 1 mps 743 mmHg 90%
20:00 +18°C° 0.9 mm 1 mps 743 mmHg 94%
21:00 +18°C° 0.3 mm 1 mps 743 mmHg 94%
22:00 +18°C° 0.3 mm 1 mps 743 mmHg 94%
23:00 +15°C° 0.3 mm 0 mps 743 mmHg 94%

Day after tomorrow, 17 July, Friday

Time Temperature Precipitation Wind Pressure Humidity
00:00 +15°C° 0.2 mm 0 mps 743 mmHg 95%
01:00 +16°C° 0.2 mm 1 mps 744 mmHg 95%
02:00 +15°C° 0.2 mm 1 mps 744 mmHg 96%
03:00 +15°C° 0.2 mm 1 mps 744 mmHg 96%
04:00 +15°C° 0.2 mm 1 mps 744 mmHg 97%
05:00 +15°C° 0.2 mm 1 mps 744 mmHg 97%
06:00 +15°C° 1 mm 1 mps 744 mmHg 97%
07:00 +16°C° 1 mm 1 mps 744 mmHg 97%
08:00 +16°C° 1 mm 1 mps 744 mmHg 97%
09:00 +16°C° 0.4 mm 1 mps 745 mmHg 96%
10:00 +16°C° 0.4 mm 1 mps 745 mmHg 95%
11:00 +17°C° 0.4 mm 2 mps 745 mmHg 94%
12:00 +17°C° 0.5 mm 2 mps 745 mmHg 93%
13:00 +17°C° 0.5 mm 2 mps 745 mmHg 92%
14:00 +18°C° 0.5 mm 2 mps 745 mmHg 91%
15:00 +18°C° 0.8 mm 2 mps 745 mmHg 92%
16:00 +17°C° 0.8 mm 2 mps 745 mmHg 93%
17:00 +17°C° 0.8 mm 2 mps 745 mmHg 94%
18:00 +17°C° 0.2 mm 2 mps 745 mmHg 94%
19:00 +17°C° 0.2 mm 2 mps 745 mmHg 94%
20:00 +17°C° 0.2 mm 3 mps 745 mmHg 94%
21:00 +17°C° 0.1 mm 3 mps 745 mmHg 94%
22:00 +16°C° 0.1 mm 3 mps 745 mmHg 95%
23:00 +16°C° 0.1 mm 3 mps 746 mmHg 95%

18 July, Saturday

Time Temperature Precipitation Wind Pressure Humidity
00:00 +16°C° 0.1 mm 3 mps 746 mmHg 95%
01:00 +16°C° 0.1 mm 3 mps 746 mmHg 95%
02:00 +16°C° 0.1 mm 2 mps 746 mmHg 95%
03:00 +16°C° 0.2 mm 2 mps 746 mmHg 95%
04:00 +16°C° 0.2 mm 2 mps 746 mmHg 95%
05:00 +16°C° 0.2 mm 2 mps 746 mmHg 95%
06:00 +16°C° 0.1 mm 3 mps 746 mmHg 94%
07:00 +17°C° 0.1 mm 3 mps 746 mmHg 93%
08:00 +17°C° 0.1 mm 3 mps 746 mmHg 93%
09:00 +18°C° 0.2 mm 3 mps 746 mmHg 91%
10:00 +19°C° 0.2 mm 3 mps 746 mmHg 88%
11:00 +19°C° 0.2 mm 3 mps 746 mmHg 86%
12:00 +20°C° 1 mm 3 mps 746 mmHg 85%
13:00 +21°C° 1 mm 3 mps 746 mmHg 84%
14:00 +22°C° 1 mm 3 mps 746 mmHg 82%
15:00 +23°C° 0.7 mm 2 mps 746 mmHg 80%
16:00 +23°C° 0.7 mm 2 mps 745 mmHg 78%
17:00 +24°C° 0.7 mm 2 mps 745 mmHg 76%
18:00 +22°C° 1 mm 1 mps 745 mmHg 80%
19:00 +21°C° 1 mm 1 mps 745 mmHg 84%
20:00 +20°C° 1 mm 1 mps 745 mmHg 88%
21:00 +19°C° 0.1 mm 1 mps 745 mmHg 88%
22:00 +18°C° 0.1 mm 1 mps 745 mmHg 89%
23:00 +15°C° 0.1 mm 0 mps 745 mmHg 90%

19 July, Sunday

Time Temperature Precipitation Wind Pressure Humidity
00:00 +15°C° 0 mm 0 mps 745 mmHg 90%
01:00 +15°C° 0 mm 0 mps 745 mmHg 90%
02:00 +15°C° 0 mm 0 mps 745 mmHg 90%
03:00 +15°C° 0 mm 0 mps 745 mmHg 91%
04:00 +15°C° 0 mm 0 mps 745 mmHg 91%
05:00 +14°C° 0 mm 0 mps 745 mmHg 92%
06:00 +16°C° 0.1 mm 0 mps 745 mmHg 90%
07:00 +17°C° 0.1 mm 0 mps 745 mmHg 88%
08:00 +20°C° 0.1 mm 1 mps 745 mmHg 85%
09:00 +21°C° 0.6 mm 1 mps 745 mmHg 82%
10:00 +22°C° 0.6 mm 1 mps 745 mmHg 78%
11:00 +23°C° 0.6 mm 2 mps 745 mmHg 74%
12:00 +23°C° 0.5 mm 2 mps 745 mmHg 73%
13:00 +24°C° 0.5 mm 2 mps 745 mmHg 72%
14:00 +24°C° 0.5 mm 2 mps 744 mmHg 71%
15:00 +24°C° 0.2 mm 1 mps 744 mmHg 71%
16:00 +24°C° 0.2 mm 1 mps 744 mmHg 70%
17:00 +24°C° 0.2 mm 1 mps 744 mmHg 70%
18:00 +23°C° 0.3 mm 1 mps 744 mmHg 77%
19:00 +20°C° 0.3 mm 2 mps 743 mmHg 83%
20:00 +19°C° 0.3 mm 2 mps 743 mmHg 89%
21:00 +18°C° 0.1 mm 2 mps 743 mmHg 91%
22:00 +18°C° 0.1 mm 3 mps 743 mmHg 92%
23:00 +17°C° 0.1 mm 3 mps 744 mmHg 94%

20 July, Monday

Time Temperature Precipitation Wind Pressure Humidity
00:00 +17°C° 0.2 mm 3 mps 744 mmHg 94%
01:00 +16°C° 0.2 mm 3 mps 743 mmHg 94%
02:00 +16°C° 0.2 mm 3 mps 743 mmHg 95%
03:00 +16°C° 0.2 mm 2 mps 743 mmHg 95%
04:00 +16°C° 0.2 mm 2 mps 743 mmHg 95%
05:00 +16°C° 0.2 mm 2 mps 743 mmHg 95%
06:00 +16°C° 0.4 mm 2 mps 743 mmHg 96%
07:00 +16°C° 0.4 mm 2 mps 743 mmHg 96%
08:00 +16°C° 0.4 mm 2 mps 743 mmHg 96%
09:00 +17°C° 0.1 mm 2 mps 743 mmHg 95%
10:00 +17°C° 0.1 mm 2 mps 743 mmHg 95%
11:00 +18°C° 0.1 mm 2 mps 743 mmHg 94%
12:00 +18°C° 0 mm 2 mps 743 mmHg 91%
13:00 +19°C° 0 mm 2 mps 743 mmHg 88%
14:00 +20°C° 0 mm 2 mps 743 mmHg 84%
15:00 +20°C° 0.1 mm 2 mps 743 mmHg 83%
16:00 +21°C° 0.1 mm 2 mps 743 mmHg 82%
17:00 +21°C° 0.1 mm 3 mps 743 mmHg 80%
18:00 +20°C° 0.1 mm 3 mps 743 mmHg 84%
19:00 +19°C° 0.1 mm 3 mps 743 mmHg 88%
20:00 +18°C° 0.1 mm 3 mps 743 mmHg 92%
21:00 +17°C° 0 mm 4 mps 743 mmHg 93%
22:00 +17°C° 0 mm 4 mps 743 mmHg 94%
23:00 +15°C° 0 mm 5 mps 744 mmHg 95%
Show more